| time (UTC) | temp C | wind direction | speed KPH | gust KPH | rain 1hr cm | rain 24hr cm | rain mn cm | humidity % | barometer mb |
| 20260905183505 | 21 | 0.0 | 0.0 | 0.00 | 0.00 | 0.00 | 14 | 1015.7 | |
| 20260905182449 | 21 | 0.0 | 0.0 | 0.00 | 0.00 | 0.00 | 14 | 1015.7 | |
| 20260905181552 | 21 | 0.0 | 0.0 | 0.00 | 0.00 | 0.00 | 14 | 1015.7 | |
| 20260905180536 | 21 | 0.0 | 0.0 | 0.00 | 0.00 | 0.00 | 14 | 1015.4 | |
| 20260905175540 | 21 | 0.0 | 0.0 | 0.00 | 0.00 | 0.00 | 14 | 1015.4 | |
| 20260905174443 | 22 | 0.0 | 0.0 | 0.00 | 0.00 | 0.00 | 14 | 1015.4 | |
| 20260905173528 | 22 | 0.0 | 0.0 | 0.00 | 0.00 | 0.00 | 14 | 1015.3 | |
| 20260905172552 | 22 | 0.0 | 0.0 | 0.00 | 0.00 | 0.00 | 14 | 1015.3 | |
| 20260905171456 | 23 | 0.0 | 0.0 | 0.00 | 0.00 | 0.00 | 14 | 1015.4 | |
| 20260905170459 | 23 | 0.0 | 0.0 | 0.00 | 0.00 | 0.00 | 14 | 1015.2 | |
| 20260905165523 | 23 | 0.0 | 0.0 | 0.00 | 0.00 | 0.00 | 14 | 1015.2 | |
| 20260905164507 | 23 | 0.0 | 0.0 | 0.00 | 0.00 | 0.00 | 14 | 1015.3 | |
| 20260905163510 | 24 | 0.0 | 0.0 | 0.00 | 0.00 | 0.00 | 14 | 1015.1 | |
| 20260905162514 | 25 | 0.0 | 0.0 | 0.00 | 0.00 | 0.00 | 14 | 1015.1 | |
| 20260905161537 | 25 | 0.0 | 0.0 | 0.00 | 0.00 | 0.00 | 14 | 1015.1 | |
| 20260905160501 | 25 | 0.0 | 0.0 | 0.00 | 0.00 | 0.00 | 14 | 1015.1 | |
| 20260905155505 | 26 | 0.0 | 0.0 | 0.00 | 0.00 | 0.00 | 14 | 1015.2 | |
| 20260905154529 | 26 | 0.0 | 0.0 | 0.00 | 0.00 | 0.00 | 14 | 1015.2 | |
| 20260905153533 | 27 | 0.0 | 0.0 | 0.00 | 0.00 | 0.00 | 14 | 1015.3 | |
| 20260905152456 | 27 | 0.0 | 0.0 | 0.00 | 0.00 | 0.00 | 14 | 1015.3 | |
| 20260905151440 | 27 | 0.0 | 0.0 | 0.00 | 0.00 | 0.00 | 14 | 1015.3 | |
| 20260905150544 | 27 | 0.0 | 0.0 | 0.00 | 0.00 | 0.00 | 14 | 1015.3 | |
| 20260905145628 | 27 | 0.0 | 0.0 | 0.00 | 0.00 | 0.00 | 14 | 1015.3 | |
| 20260905144451 | 27 | 0.0 | 0.0 | 0.00 | 0.00 | 0.00 | 14 | 1015.3 | |
| 20260905143435 | 27 | 0.0 | 0.0 | 0.00 | 0.00 | 0.00 | 14 | 1015.6 | |
| 20260905142621 | 28 | 0.0 | 0.0 | 0.00 | 0.00 | 0.00 | 14 | 1015.7 | |
| 20260905141505 | 28 | 0.0 | 0.0 | 0.00 | 0.00 | 0.00 | 14 | 1015.7 | |
| 20260905140448 | 28 | 0.0 | 0.0 | 0.00 | 0.00 | 0.00 | 14 | 1015.5 | |
| 20260905135534 | 27 | 0.0 | 0.0 | 0.00 | 0.00 | 0.00 | 14 | 1015.6 | |
| 20260905134538 | 28 | 0.0 | 0.0 | 0.00 | 0.00 | 0.00 | 14 | 1015.6 | |
| 20260905133502 | 28 | 0.0 | 0.0 | 0.00 | 0.00 | 0.00 | 14 | 1015.6 | |
| 20260905132445 | 27 | 0.0 | 0.0 | 0.00 | 0.00 | 0.00 | 14 | 1015.6 | |
| 20260905131611 | 27 | 0.0 | 0.0 | 0.00 | 0.00 | 0.00 | 14 | 1015.6 | |
| 20260905130535 | 28 | 0.0 | 0.0 | 0.00 | 0.00 | 0.00 | 14 | 1015.8 | |
| 20260905125538 | 28 | 0.0 | 0.0 | 0.00 | 0.00 | 0.00 | 14 | 1015.9 | |
| 20260905124502 | 27 | 0.0 | 0.0 | 0.00 | 0.00 | 0.00 | 14 | 1015.8 | |
| 20260905123527 | 27 | 0.0 | 0.0 | 0.00 | 0.00 | 0.00 | 14 | 1015.8 | |
| 20260905122511 | 27 | 0.0 | 0.0 | 0.00 | 0.00 | 0.00 | 14 | 1015.8 | |
| 20260905121535 | 27 | 0.0 | 0.0 | 0.00 | 0.00 | 0.00 | 14 | 1015.7 | |
| 20260905120439 | 27 | 0.0 | 0.0 | 0.00 | 0.00 | 0.00 | 14 | 1016.1 | |
| 20260905115544 | 26 | 0.0 | 0.0 | 0.00 | 0.00 | 0.00 | 14 | 1016.0 | |
| 20260905114508 | 26 | 0.0 | 0.0 | 0.00 | 0.00 | 0.00 | 14 | 1016.0 | |
| 20260905113452 | 25 | 0.0 | 0.0 | 0.00 | 0.00 | 0.00 | 14 | 1016.1 | |
| 20260905112516 | 25 | 0.0 | 0.0 | 0.00 | 0.00 | 0.00 | 14 | 1016.0 | |
| 20260905111600 | 23 | 0.0 | 0.0 | 0.00 | 0.00 | 0.00 | 14 | 1015.9 | |
| 20260905110544 | 23 | 0.0 | 0.0 | 0.00 | 0.00 | 0.00 | 14 | 1015.9 | |
| 20260905105447 | 23 | 0.0 | 0.0 | 0.00 | 0.00 | 0.00 | 14 | 1015.9 | |
| 20260905104631 | 22 | 0.0 | 0.0 | 0.00 | 0.00 | 0.00 | 14 | 1015.9 | |
| 20260905103535 | 21 | 0.0 | 0.0 | 0.00 | 0.00 | 0.00 | 14 | 1016.1 | |
| 20260905102459 | 21 | 0.0 | 0.0 | 0.00 | 0.00 | 0.00 | 14 | 1016.1 | |
| 20260905101442 | 21 | 0.0 | 0.0 | 0.00 | 0.00 | 0.00 | 14 | 1016.1 | |
| 20260905100526 | 21 | 0.0 | 0.0 | 0.00 | 0.00 | 0.00 | 21 | 1017.0 | |
| 20260905095508 | 21 | 0.0 | 0.0 | 0.00 | 0.00 | 0.00 | 23 | 1017.0 | |
| 20260905094511 | 21 | 0.0 | 0.0 | 0.00 | 0.00 | 0.00 | 24 | 1017.0 | |
| 20260905093515 | 20 | 0.0 | 0.0 | 0.00 | 0.00 | 0.00 | 26 | 1016.9 | |
| 20260905092518 | 20 | 0.0 | 0.0 | 0.00 | 0.00 | 0.00 | 28 | 1016.8 | |
| 20260905091501 | 19 | 0.0 | 0.0 | 0.00 | 0.00 | 0.00 | 29 | 1016.8 | |
| 20260905090445 | 18 | 0.0 | 0.0 | 0.00 | 0.00 | 0.00 | 33 | 1016.7 | |
| 20260905085549 | 17 | 0.0 | 0.0 | 0.00 | 0.00 | 0.00 | 36 | 1016.6 | |
| 20260905084512 | 17 | 0.0 | 0.0 | 0.00 | 0.00 | 0.00 | 36 | 1016.6 | |
| 20260905083536 | 16 | 0.0 | 0.0 | 0.00 | 0.00 | 0.00 | 36 | 1015.5 | |
| 20260905082459 | 16 | 0.0 | 0.0 | 0.00 | 0.00 | 0.00 | 37 | 1015.4 | |
| 20260905081523 | 16 | 0.0 | 0.0 | 0.00 | 0.00 | 0.00 | 37 | 1015.5 | |
| 20260905080607 | 16 | 0.0 | 0.0 | 0.00 | 0.00 | 0.00 | 36 | 1015.5 | |
| 20260905075530 | 16 | 0.0 | 0.0 | 0.00 | 0.00 | 0.00 | 35 | 1015.5 | |
| 20260905074534 | 15 | 0.0 | 0.0 | 0.00 | 0.00 | 0.00 | 37 | 1015.5 | |
| 20260905073537 | 15 | 0.0 | 0.0 | 0.00 | 0.00 | 0.00 | 37 | 1015.3 | |
| 20260905072600 | 15 | 0.0 | 0.0 | 0.00 | 0.00 | 0.00 | 35 | 1015.3 | |
| 20260905071503 | 15 | 0.0 | 0.0 | 0.00 | 0.00 | 0.00 | 34 | 1015.3 | |
| 20260905070527 | 15 | 0.0 | 0.0 | 0.00 | 0.00 | 0.00 | 36 | 1015.1 | |
| 20260905065511 | 15 | 0.0 | 0.0 | 0.00 | 0.00 | 0.00 | 33 | 1015.1 | |
| 20260905064455 | 15 | 0.0 | 0.0 | 0.00 | 0.00 | 0.00 | 33 | 1015.2 | |
| 20260905063439 | 16 | 0.0 | 0.0 | 0.00 | 0.00 | 0.00 | 35 | 1015.5 | |
| 20260905062602 | 16 | 0.0 | 0.0 | 0.00 | 0.00 | 0.00 | 33 | 1015.5 | |
| 20260905061526 | 16 | 0.0 | 0.0 | 0.00 | 0.00 | 0.00 | 31 | 1015.5 | |
| 20260905060450 | 16 | 0.0 | 0.0 | 0.00 | 0.00 | 0.00 | 31 | 1014.9 | |
| 20260905055554 | 16 | 0.0 | 0.0 | 0.00 | 0.00 | 0.00 | 30 | 1014.9 | |
| 20260905054617 | 17 | 0.0 | 0.0 | 0.00 | 0.00 | 0.00 | 32 | 1015.1 | |
| 20260905053521 | 17 | 0.0 | 0.0 | 0.00 | 0.00 | 0.00 | 31 | 1014.7 | |
| 20260905052525 | 17 | 0.0 | 0.0 | 0.00 | 0.00 | 0.00 | 31 | 1014.7 | |
| 20260905051628 | 17 | 0.0 | 0.0 | 0.00 | 0.00 | 0.00 | 29 | 1014.8 | |
| 20260905050512 | 17 | 0.0 | 0.0 | 0.00 | 0.00 | 0.00 | 32 | 1013.9 | |
| 20260905045455 | 17 | 0.0 | 0.0 | 0.00 | 0.00 | 0.00 | 28 | 1013.9 | |
| 20260905044519 | 17 | 0.0 | 0.0 | 0.00 | 0.00 | 0.00 | 27 | 1014.0 | |
| 20260905043623 | 18 | 0.0 | 0.0 | 0.00 | 0.00 | 0.00 | 26 | 1013.9 | |
| 20260905042527 | 18 | 0.0 | 0.0 | 0.00 | 0.00 | 0.00 | 25 | 1013.9 | |
| 20260905041528 | 18 | 0.0 | 0.0 | 0.00 | 0.00 | 0.00 | 21 | 1014.0 | |
| 20260905040532 | 18 | 0.0 | 0.0 | 0.00 | 0.00 | 0.00 | 21 | 1012.9 | |
| 20260905035536 | 18 | 0.0 | 0.0 | 0.00 | 0.00 | 0.00 | 14 | 1012.9 | |
| 20260905034519 | 18 | 0.0 | 0.0 | 0.00 | 0.00 | 0.00 | 14 | 1012.9 | |
| 20260905033523 | 18 | 0.0 | 0.0 | 0.00 | 0.00 | 0.00 | 14 | 1012.5 | |
| 20260905032527 | 18 | 0.0 | 0.0 | 0.00 | 0.00 | 0.00 | 14 | 1012.5 | |
| 20260905031530 | 19 | 0.0 | 0.0 | 0.00 | 0.00 | 0.00 | 14 | 1012.6 | |
| 20260905030514 | 19 | 0.0 | 0.0 | 0.00 | 0.00 | 0.00 | 14 | 1012.2 | |
| 20260905025538 | 19 | 0.0 | 0.0 | 0.00 | 0.00 | 0.00 | 14 | 1012.2 | |
| 20260905024541 | 19 | 0.0 | 0.0 | 0.00 | 0.00 | 0.00 | 14 | 1012.2 | |
| 20260905023605 | 19 | 0.0 | 0.0 | 0.00 | 0.00 | 0.00 | 14 | 1011.8 | |
| 20260905022448 | 20 | 0.0 | 0.0 | 0.00 | 0.00 | 0.00 | 14 | 1011.9 | |
| 20260905021532 | 20 | 0.0 | 0.0 | 0.00 | 0.00 | 0.00 | 14 | 1011.9 | |
| 20260905020556 | 20 | 0.0 | 0.0 | 0.00 | 0.00 | 0.00 | 14 | 1012.2 | |
| 20260905015500 | 20 | 0.0 | 0.0 | 0.00 | 0.00 | 0.00 | 14 | 1012.3 | |
| 20260905014503 | 20 | 0.0 | 0.0 | 0.00 | 0.00 | 0.00 | 14 | 1012.3 | |
| 20260905013527 | 21 | 0.0 | 0.0 | 0.00 | 0.00 | 0.00 | 14 | 1011.0 | |
| 20260905012531 | 21 | 0.0 | 0.0 | 0.00 | 0.00 | 0.00 | 14 | 1011.0 | |
| 20260905011514 | 21 | 0.0 | 0.0 | 0.00 | 0.00 | 0.00 | 14 | 1011.1 | |
| 20260905010458 | 22 | 0.0 | 0.0 | 0.00 | 0.00 | 0.00 | 14 | 1009.8 | |
| 20260905005523 | 22 | 0.0 | 0.0 | 0.00 | 0.00 | 0.00 | 14 | 1009.9 | |
| 20260905004506 | 22 | 0.0 | 0.0 | 0.00 | 0.00 | 0.00 | 14 | 1009.9 | |
| 20260905003450 | 22 | 0.0 | 0.0 | 0.00 | 0.00 | 0.00 | 14 | 1009.1 | |
| 20260905002614 | 22 | 0.0 | 0.0 | 0.00 | 0.00 | 0.00 | 14 | 1009.1 | |
| 20260905001518 | 22 | 0.0 | 0.0 | 0.00 | 0.00 | 0.00 | 14 | 1009.1 | |
| 20260905000501 | 22 | 0.0 | 0.0 | 0.00 | 0.00 | 0.00 | 14 | 1009.1 | |
| 20260904235505 | 22 | 0.0 | 0.0 | 0.00 | 0.00 | 0.00 | 14 | 1009.1 | |
| 20260904234530 | 22 | 0.0 | 0.0 | 0.00 | 0.00 | 0.00 | 14 | 1009.1 | |
| 20260904233534 | 22 | 0.0 | 0.0 | 0.00 | 0.00 | 0.00 | 14 | 1009.1 | |
| 20260904232537 | 22 | 0.0 | 0.0 | 0.00 | 0.00 | 0.00 | 14 | 1009.1 | |
| 20260904231441 | 22 | 0.0 | 0.0 | 0.00 | 0.00 | 0.00 | 14 | 1009.1 | |
| 20260904230545 | 22 | 0.0 | 0.0 | 0.00 | 0.00 | 0.00 | 14 | 1009.0 | |
| 20260904225549 | 22 | 0.0 | 0.0 | 0.00 | 0.00 | 0.00 | 14 | 1009.0 | |
| 20260904224532 | 22 | 0.0 | 0.0 | 0.00 | 0.00 | 0.00 | 14 | 1009.1 | |
| 20260904223455 | 22 | 0.0 | 0.0 | 0.00 | 0.00 | 0.00 | 14 | 1009.0 | |
| 20260904222539 | 22 | 0.0 | 0.0 | 0.00 | 0.00 | 0.00 | 14 | 1009.0 | |
| 20260904221502 | 22 | 0.0 | 0.0 | 0.00 | 0.00 | 0.00 | 14 | 1009.0 | |
| 20260904220445 | 22 | 0.0 | 0.0 | 0.00 | 0.00 | 0.00 | 14 | 1008.9 | |
| 20260904215549 | 23 | 0.0 | 0.0 | 0.00 | 0.00 | 0.00 | 14 | 1008.8 | |
| 20260904214552 | 23 | 0.0 | 0.0 | 0.00 | 0.00 | 0.00 | 14 | 1008.8 | |
| 20260904213556 | 23 | 0.0 | 0.0 | 0.00 | 0.00 | 0.00 | 14 | 1008.9 | |
| 20260904212439 | 23 | 0.0 | 0.0 | 0.00 | 0.00 | 0.00 | 14 | 1008.9 | |
| 20260904211542 | 22 | 0.0 | 0.0 | 0.00 | 0.00 | 0.00 | 14 | 1008.9 | |
| 20260904210505 | 23 | 0.0 | 0.0 | 0.00 | 0.00 | 0.00 | 14 | 1008.8 | |
| 20260904205529 | 23 | 0.0 | 0.0 | 0.00 | 0.00 | 0.00 | 14 | 1008.8 | |
| 20260904204553 | 23 | 0.0 | 0.0 | 0.00 | 0.00 | 0.00 | 14 | 1008.8 | |
| 20260904203516 | 23 | 0.0 | 0.0 | 0.00 | 0.00 | 0.00 | 14 | 1009.2 | |
| 20260904202459 | 23 | 0.0 | 0.0 | 0.00 | 0.00 | 0.00 | 14 | 1009.2 | |
| 20260904201503 | 24 | 0.0 | 0.0 | 0.00 | 0.00 | 0.00 | 14 | 1009.2 | |
| 20260904200626 | 24 | 0.0 | 0.0 | 0.00 | 0.00 | 0.00 | 14 | 1009.1 | |
| 20260904195510 | 25 | 0.0 | 0.0 | 0.00 | 0.00 | 0.00 | 14 | 1009.0 | |
| 20260904194453 | 25 | 0.0 | 0.0 | 0.00 | 0.00 | 0.00 | 14 | 1009.0 | |
| 20260904193437 | 25 | 0.0 | 0.0 | 0.00 | 0.00 | 0.00 | 14 | 1009.1 | |
| 20260904192542 | 25 | 0.0 | 0.0 | 0.00 | 0.00 | 0.00 | 14 | 1009.1 | |
| 20260904191526 | 25 | 0.0 | 0.0 | 0.00 | 0.00 | 0.00 | 14 | 1009.1 | |
| 20260904190449 | 25 | 0.0 | 0.0 | 0.00 | 0.00 | 0.00 | 14 | 1009.0 | |
| 20260904185553 | 26 | 0.0 | 0.0 | 0.00 | 0.00 | 0.00 | 14 | 1009.0 | |
| 20260904184537 | 26 | 0.0 | 0.0 | 0.00 | 0.00 | 0.00 | 14 | 1009.0 | |
| 20260904183540 | 26 | 0.0 | 0.0 | 0.00 | 0.00 | 0.00 | 14 | 1008.6 |